Regional Weather Roundup
Issued by NWS

Home | Current Version | Previous Version | Text Only | Print | Product List | Glossary On
Versions: 1 2 3 4 5 6 7 8 9 10 11 12 13 14 15 16 17 18 19 20 21 22 23 24 25 26 27 28
000
ASUS45 KTFX 250810
RWRMT
MONTANA REGIONAL WEATHER ROUNDUP
NATIONAL WEATHER SERVICE GREAT FALLS MT
100 AM MST SAT NOV 25 2017

NOTE: "FAIR" INDICATES FEW OR NO CLOUDS BELOW 12000 FEET WITH NO
SIGNIFICANT WEATHER AND/OR OBSTRUCTIONS TO VISIBILITY.

MTZ001>007-043-250900-
WEST OF THE DIVIDE

CITY           SKY/WX    TMP DP  RH WIND       PRES   REMARKS
KALISPELL      CLOUDY    36  31  82 CALM      30.11S
MISSOULA       FAIR      31  26  82 NE5       30.17R
BUTTE          FAIR      25  19  78 SE9       30.12R WCI  15
MULLAN PASS    CLOUDY    26  24  92 VRB7      30.08  FOG     WCI  18
ANACONDA         N/A     25  19  80 SW3       30.13R
DEER LODGE       N/A     28  23  80 CALM      30.15R
EUREKA           N/A     41  27  56 MISG      30.08F
HAMILTON         N/A     28  21  74 S6        30.15F WCI  22
LIBBY            N/A     32  30  93 CALM      30.10R
PLAINS           N/A     33  28  82 CALM      30.15
$$

MTZ008-052>055-250900-
SOUTHWEST MONTANA

CITY           SKY/WX    TMP DP  RH WIND       PRES   REMARKS
BOZEMAN        FAIR      28  22  78 S9        30.10F WCI  19
DILLON         FAIR      28  21  75 S12       30.11R WCI  18
W YELLOWSTONE  MOCLDY    30  27  86 CALM      30.15S
ENNIS          CLEAR     36  28  75 S13       30.15R WCI  27
$$

MTZ009-010-012-014-046-048-049-054-250900-
EAST SLOPES AND CENTRAL MONTANA

CITY           SKY/WX    TMP DP  RH WIND       PRES   REMARKS
CUT BANK       FAIR      38  21  50 SW21G29   29.94F WCI  28
GREAT FALLS    FAIR      34  18  52 SW12      29.99S WCI  25
MALMSTROM AFB  FAIR      35  21  57 SW14      30.00S WCI  26
HELENA         FAIR      37  23  56 CALM      30.09S
BOWMANS CRNR   FAIR      34  17  50 SW18      29.96F WCI  23
CHOTEAU          N/A     37  19  48 S7        29.97F
FAIRFIELD      FAIR      34  20  56 SE9       29.97R WCI  27
POWER          FAIR      33  20  59 MISG      29.97R
RAYNESFORD     FAIR      38  18  44 CALM      30.00F
ULM            FAIR      36  18  48 SW3       30.00S
$$

MTZ011-013-016-021-045-047-050-051-250900-
NORTH CENTRAL MONTANA

CITY           SKY/WX    TMP DP  RH WIND       PRES   REMARKS
HAVRE          FAIR      34  24  67 SW6       29.97R WCI  29
LEWISTOWN      FAIR      32  20  61 SW13      29.99S WCI  22
N BAR RANCH    FAIR      30  18  59 CALM      30.02S
CHINOOK          N/A     32  25  74 W6        29.97S WCI  26
DENTON         FAIR      32  21  65 MISG      29.95F
GEYSER         FAIR      36  19  49 W9        29.98S WCI  29
GRASS RANGE    MOCLDY    35  21  56 SW12      29.96S WCI  27
STANFORD       FAIR      33  17  51 W6        29.98F WCI  28
WINIFRED       FAIR      35  22  58 W8        29.97F WCI  29
$$

MTZ017>020-022>027-061-062-250900-
NORTHEAST MONTANA

CITY           SKY/WX    TMP DP  RH WIND       PRES   REMARKS
GLASGOW        FAIR      29  24  82 N3        29.97R
GLENDIVE       FAIR      36  25  64 W13       29.99R WCI  27
JORDAN           N/A     28  22  78 W6        30.00R WCI  22
SIDNEY         FAIR      35  27  72 NW15      29.95R WCI  25
WOLF POINT     FAIR      32  25  75 W6        29.97R WCI  26
MALTA          CLEAR     25  23  93 SW3       29.97S
PLENTYWOOD       N/A     28  27  93 CALM      29.91S
POPLAR           N/A     30  25  80 W8        29.97R WCI  23
SCOBEY           N/A     25  15  65 CALM      29.91R
$$

MTZ028>42-056>058-250900-
SOUTHCENTRAL AND SOUTHEAST MONTANA

CITY           SKY/WX    TMP DP  RH WIND       PRES   REMARKS
BAKER          FAIR      31  25  78 W9        30.01R WCI  23
BILLINGS       FAIR      32  23  69 CALM      30.04S
LIVINGSTON     MOCLDY    38  19  46 W14       30.05F WCI  30
MILES CITY     FAIR      28  24  85 SW8       30.04R WCI  20
BIG TIMBER     CLEAR     39  18  41 W20       30.04F WCI  30
EKALAKA          N/A     36  21  54 SW8       30.00  WCI  30
FORSYTH          N/A     30  23  74 CALM      30.04S
HARLOWTON      FAIR      34  22  61 SW10      30.03R WCI  26
LAUREL           N/A     34  21  60 CALM      30.06R
$$

REGIONAL REPORTS...DAKOTAS

CITY           SKY/WX    TMP DP  RH WIND       PRES   REMARKS
WILLISTON      FAIR      31  24  75 W5        29.94R
MINOT          FAIR      28  25  88 W5        29.90S
DICKINSON      FAIR      32  25  75 W12       29.94R WCI  23
BEACH          FAIR      32  25  74 W13       30.00R WCI  22
CROSBY         FAIR      23  23 100 CALM      29.93R
TIOGA          FAIR      25  25 100 SW5       29.93S
WATFORD CITY   FAIR      32  27  80 CALM      29.93R
BISMARCK       FAIR      32  27  81 W5        29.95R
GRAND FORKS    CLOUDY    26  20  77 N16       29.94R WCI  14
FARGO          FAIR      28  25  88 N8        29.90R WCI  20
BUFFALO SD       N/A     30  23  75 W13       29.95  WCI  20
RAPID CITY     FAIR      33  20  58 NW6       30.03S WCI  28
$$

REGIONAL REPORTS...WYOMING/IDAHO/WASHINGTON

CITY           SKY/WX    TMP DP  RH WIND       PRES   REMARKS
GILLETTE       FAIR      24  19  81 CALM      30.05R
SHERIDAN       FAIR      25  21  85 CALM      30.06R
BUFFALO WY     FAIR      31  19  61 W7        30.07R WCI  24
CODY           FAIR      46  23  40 W7G23     30.06R
YELLOWSTONE LA   N/A     28  21  75 VRB5      30.18F
IDAHO FALLS    FAIR      39  28  64 S13       30.19R WCI  31
SALMON         FAIR      25  24  96 CALM      30.19R
BOISE          FAIR      39  28  64 SE9       30.18R
SPOKANE        FAIR      35  33  92 S6        30.15R WCI  30
$$

REGIONAL REPORTS...ALBERTA

CITY           SKY/WX    TMP DP  RH WIND       PRES   REMARKS
EDMONTON       CLEAR     30  21  69 SW8       29.67S WCI  23
CALGARY        MOCLDY    41  21  45 S5G18     29.77R
LETHBRIDGE     PTCLDY    39  25  56 SW18      29.89R WCI  30
MEDICINE HAT   CLEAR     36  27  69 SW14G21   29.86F WCI  27
$$

REGIONAL REPORTS...SASKATCHEWAN

CITY           SKY/WX    TMP DP  RH WIND       PRES   REMARKS
SWIFT CURRENT  CLEAR     32  27  80 SW13      29.86F WCI  22
REGINA         FOG       19  18  93 SW7       29.89S VSB 1/2 WCI  10
SASKATOON      PTCLDY    16  14  93 S5        29.87S
$$




USA.gov is the U.S. government's official web portal to all federal, state and local government web resources and services.